This demonstration page uses our WeatherBlox Daily Observations layout. Learn more.

Left ArrowRight Arrow

41.86663, -103.66717

Hourly Observations for April 26, 2018

Temp ( °F °C ) Dew Point ( °F °C ) Humidity (%) Winds ( mph kmh ) Pressure ( in mb ) Visibility ( mi km ) Precip ( " mm )
12:53 am 00:53 Clear 56 13.3 28 -2.2 34 34 N 31 50 29.87 1011 10 16 N/A
1:53 am 01:53 Clear 53 11.7 30 -1.1 41 41 NW 15 24 29.95 1014 10 16 N/A
2:53 am 02:53 Mostly Cloudy 50 10 32 undefined 50 50 NW 16 26 29.98 1015 10 16 N/A
3:53 am 03:53 Mostly Cloudy 49 9.4 32 undefined 52 52 NNW 18 30 30.00 1016 10 16 N/A
4:53 am 04:53 Cloudy 50 10 32 undefined 50 50 NNW 28 44 30.03 1017 10 16 N/A
5:53 am 05:53 Clear 45 7.2 33 0.6 63 63 NNW 12 19 30.09 1019 10 16 N/A
6:53 am 06:53 Cloudy 47 8.3 34 1.1 61 61 NNW 15 24 30.13 1020 10 16 N/A
7:53 am 07:53 Mostly Sunny 50 10 34 1.1 54 54 NNW 12 19 30.19 1022 10 16 N/A
8:53 am 08:53 Mostly Sunny 53 11.7 34 1.1 48 48 NNW 21 33 30.20 1023 10 16 N/A
9:53 am 09:53 Sunny 56 13.3 32 undefined 40 40 N 23 37 30.20 1023 10 16 N/A
10:53 am 10:53 Sunny 58 14.4 31 -0.6 36 36 N 17 28 30.21 1023 10 16 N/A
11:53 am 11:53 Mostly Sunny 60 15.6 31 -0.6 33 33 NNW 21 33 30.19 1023 10 16 N/A
12:53 pm 12:53 Mostly Cloudy 59 15 29 -1.7 32 32 NW 18 30 30.18 1022 10 16 N/A
1:53 pm 13:53 Partly Cloudy 62 16.7 30 -1.1 30 30 NNW 16 26 30.17 1022 10 16 N/A
2:53 pm 14:53 Mostly Sunny 62 16.7 29 -1.7 29 29 NW 13 20 30.16 1021 10 16 N/A
3:53 pm 15:53 Mostly Sunny 63 17.2 30 -1.1 29 29 N 14 22 30.14 1021 10 16 N/A
4:53 pm 16:53 Sunny 64 17.8 29 -1.7 27 27 NNW 16 26 30.12 1020 10 16 N/A
5:53 pm 17:53 Sunny 64 17.8 28 -2.2 26 26 NW 15 24 30.13 1020 10 16 N/A
6:53 pm 18:53 Sunny 61 16.1 30 -1.1 31 31 WNW 7 11 30.11 1020 10 16 N/A
7:53 pm 19:53 Clear 56 13.3 30 -1.1 37 37 NNW 3 6 30.12 1020 10 16 N/A
8:53 pm 20:53 Clear 50 10 30 -1.1 46 46 WNW 3 6 30.14 1021 10 16 N/A
9:53 pm 21:53 Clear 43 6.1 30 -1.1 60 60 NNW 3 6 30.16 1021 10 16 N/A
10:53 pm 22:53 Clear 41 5 30 -1.1 65 65 E 5 7 30.15 1021 10 16 N/A
11:53 pm 23:53 Clear 37 2.8 31 -0.6 79 79 N N/A 30.14 1021 10 16 N/A

Powered by AerisWeather